This is the latest recevied weather packets stored in our database for station/object KI4NG. If no packets are shown the sender has not sent any weather packets the latest 10 day(s).
| Time | Temp. | Humidity | Pressure | Rain* | Wind** | Luminosity | Snow |
|---|---|---|---|---|---|---|---|
| 1787937273 | 28.89° C | 65% | 1020.7 hPa | 0 mm | - | 790 W/m² | - |
| 1787936969 | 28.89° C | 64% | 1020.9 hPa | 0 mm | - | 765 W/m² | - |
| 1787936667 | 27.78° C | 66% | 1020.9 hPa | 0 mm | - | 806 W/m² | - |
| 1787936363 | 27.22° C | 71% | 1020.8 hPa | 0 mm | - | 832 W/m² | - |
| 1787936058 | 28.33° C | 69% | 1020.9 hPa | 0 mm | - | 176 W/m² | - |
| 1787935753 | 28.89° C | 66% | 1020.8 hPa | 0 mm | - | 700 W/m² | - |
| 1787935449 | 28.33° C | 66% | 1020.9 hPa | 0 mm | - | 838 W/m² | - |
| 1787935145 | 26.67° C | 70% | 1020.8 hPa | 0 mm | - | 825 W/m² | - |
| 1787934841 | 27.78° C | 73% | 1021.1 hPa | 0 mm | - | 167 W/m² | - |
| 1787934539 | 28.33° C | 69% | 1021 hPa | 0 mm | - | 235 W/m² | - |
| 1787934234 | 28.33° C | 70% | 1020.8 hPa | 0 mm | - | 687 W/m² | - |
| 1787933933 | 27.78° C | 69% | 1020.8 hPa | 0 mm | - | 868 W/m² | - |
| 1787933627 | 27.78° C | 69% | 1020.9 hPa | 0 mm | - | 811 W/m² | - |
| 1787933322 | 27.78° C | 68% | 1020.9 hPa | 0 mm | - | 803 W/m² | - |
| 1787933022 | 27.78° C | 72% | 1021 hPa | 0 mm | - | 651 W/m² | - |
| 1787932720 | 28.33° C | 70% | 1021 hPa | 0 mm | - | 906 W/m² | - |
| 1787932415 | 28.33° C | 74% | 1020.8 hPa | 0 mm | - | 885 W/m² | - |
| 1787932110 | 28.89° C | 68% | 1021.1 hPa | 0 mm | - | 876 W/m² | - |
| 1787931808 | 27.78° C | 73% | 1021 hPa | 0 mm | - | 653 W/m² | - |
| 1787931503 | 27.22° C | 74% | 1020.9 hPa | 0 mm | - | 766 W/m² | - |
| 1787931198 | 27.78° C | 71% | 1021 hPa | 0 mm | - | 732 W/m² | - |
| 1787930596 | 26.67° C | 73% | 1020.9 hPa | 0 mm | - | 693 W/m² | - |
| 1787930291 | 27.78° C | 71% | 1021.1 hPa | 0 mm | - | 680 W/m² | - |
| 1787929986 | 27.78° C | 70% | 1021.1 hPa | 0 mm | - | 677 W/m² | - |
| 1787929684 | 27.22° C | 73% | 1021.1 hPa | 0 mm | - | 671 W/m² | - |
* Rain latest hour (hover to see other rain measurements)
** Current wind speed in m/s (hover to see current wind gust speed)